Location: Cahas Mountain Overlook
(37.0833°N, 80.1000°W)
Time: 00:16:30
(UTC-05:00)

Transit 2A Rocket - All Passes

Search period start: 29 November 2023 00:00
Search period end: 09 December 2023 00:00
Orbit: 593 x 903 km, 66.7° (Epoch: 28 November)

Date Brightness Start Highest point End Pass type
(mag) Time Alt. Az. Time Alt. Az. Time Alt. Az.
29 Nov - 08:02:30 10° NNW 08:06:54 88° ENE 08:11:31 10° SSE daylight
29 Nov - 22:34:10 10° SSW 22:39:05 75° WNW 22:43:38 10° NNE night (unlit)
30 Nov - 07:19:04 10° NNW 07:23:14 43° ENE 07:27:36 10° SE daylight
30 Nov - 09:02:38 10° WNW 09:05:20 16° WSW 09:08:07 10° SW daylight
30 Nov - 21:50:40 10° SSW 21:55:29 55° ESE 21:59:57 10° NE night (unlit)
30 Nov - 23:35:17 10° W 23:38:11 16° NW 23:41:00 10° NNW night (unlit)
01 Dec - 06:35:57 10° N 06:39:28 23° NE 06:43:06 10° ESE visible
01 Dec - 08:17:59 10° NW 08:21:53 31° WSW 08:25:59 10° S daylight
01 Dec - 21:07:46 10° S 21:11:58 28° ESE 21:15:53 10° NE night (unlit)
01 Dec - 22:50:12 10° WSW 22:54:20 28° NW 22:58:14 10° N night (unlit)
02 Dec - 05:53:29 10° NNE 05:55:33 13° NE 05:57:39 10° ENE visible
02 Dec - 07:34:01 10° NW 07:38:21 65° WSW 07:42:57 10° SSE daylight
02 Dec - 20:25:54 10° SE 20:28:30 14° ESE 20:31:02 10° ENE night (unlit)
02 Dec - 22:05:51 10° SW 22:10:35 53° WNW 22:15:01 10° NNE night (unlit)
03 Dec - 06:50:24 10° NNW 06:54:45 62° ENE 06:59:20 10° SE visible
03 Dec - 08:35:32 10° W 08:36:42 11° WSW 08:37:53 10° WSW daylight
03 Dec - 21:22:03 10° SSW 21:26:57 79° ESE 21:31:29 10° NNE night (unlit)
03 Dec - 23:08:11 10° WNW 23:09:52 12° NW 23:11:30 10° NNW night (unlit)
04 Dec - 06:07:06 10° N 06:11:02 32° ENE 06:15:09 10° ESE visible
04 Dec - 07:49:50 10° WNW 07:53:17 22° WSW 07:56:54 10° SSW daylight
04 Dec - 20:38:50 10° S 20:43:23 39° ESE 20:47:37 10° NE night (unlit)
04 Dec - 22:22:21 10° WSW 22:25:54 21° NW 22:29:19 10° N night (unlit)
05 Dec - 05:24:12 10° N 05:27:11 18° NE 05:30:16 10° E visible
05 Dec - 07:05:36 10° NW 07:09:48 44° WSW 07:14:15 10° S daylight
05 Dec - 19:56:20 10° SSE 19:59:53 20° ESE 20:03:15 10° ENE night (unlit)
05 Dec - 21:37:39 10° SW 21:42:06 37° WNW 21:46:18 10° N night (unlit)
06 Dec - 06:21:48 10° NNW 06:26:13 89° E 06:30:54 10° SSE visible
06 Dec - 20:53:35 10° SSW 20:58:24 73° WNW 21:02:54 10° NNE night (unlit)
07 Dec - 05:38:20 10° NNW 05:42:33 44° ENE 05:47:00 10° SE visible
07 Dec - 07:21:56 10° WNW 07:24:40 16° WSW 07:27:28 10° SW daylight
07 Dec - 20:10:03 10° SSW 20:14:48 56° ESE 20:19:13 10° NE visible
07 Dec - 21:54:45 10° W 21:57:31 15° NW 22:00:12 10° NNW night (unlit)
08 Dec - 04:55:12 10° N 04:58:46 24° NE 05:02:30 10° ESE visible
08 Dec - 06:37:16 10° NW 06:41:12 31° WSW 06:45:21 10° S visible
08 Dec - 19:27:08 10° S 19:31:16 28° ESE 19:35:09 10° NE visible
08 Dec - 21:09:36 10° WSW 21:13:38 27° NW 21:17:28 10° N night (unlit)
